Midland City, AL

1:55 AM CST on February 27, 2017 (GMT -0600)
Fort Rucker / Ozark

Weather History for KHEY - March, 2013

Change the Weather History Date:

Monday, March 25, 2013

  Actual Average (KOZR) Record (KOZR)
Temperature  
Mean Temperature 48 °F -  
Max Temperature 57 °F 70 °F 87 °F (2007)
Min Temperature 39 °F 47 °F 28 °F (2008)
Degree Days  
Heating Degree Days 17    
Moisture  
Dew Point 24 °F    
Average Humidity 42    
Maximum Humidity 63    
Minimum Humidity 22    
Precipitation  
Precipitation 0.00 in - - ()
Sea Level Pressure  
Sea Level Pressure 29.91 in    
Wind  
Wind Speed 9 mph (WNW)    
Max Wind Speed 16 mph    
Max Gust Speed 38 mph    
Visibility 10 miles    
Events      
Averages and records for this station are not official NWS values.
T = Trace of Precipitation, MM = Missing Value Source: NWS Daily Summary

Daily Weather History Graph

Daily Weather History Graph

Search for Another Location

Airport or City:

Trip Planner

Search our weather history database for the weather conditions in past years. The results will help you decide how hot, cold, wet, or windy it might be!

Date:

Astronomy

Mar. 25, 2013 Rise Set
Actual Time 6:39 AM CDT 6:57 PM CDT
Civil Twilight 6:15 AM CDT 7:21 PM CDT
Nautical Twilight 5:47 AM CDT 7:50 PM CDT
Astronomical Twilight 5:18 AM CDT 8:19 PM CDT
Moon 5:31 PM CDT (3/25) 5:17 AM CDT (3/25)
Length of Visible Light 13h 06m
Length of Day
12h 17m
Waxing Gibbous, 96% of the Moon is Illuminated
Mar 25
Waxing Gibbous
Mar 27
Full
Apr 2
Last Quarter
Apr 10
New
Apr 18
First Quarter

Hourly Weather History & Observations

Time (CDT) Temp. Windchill Dew Point Humidity Pressure Visibility Wind Dir Wind Speed Gust Speed Precip Events Conditions
12:53 AM 46.0 °F 43.1 °F 30.9 °F 56% 29.54 in 10.0 mi Variable 5.8 mph 18.4 mph N/A   Clear
1:53 AM 45.0 °F 39.3 °F 30.0 °F 56% 29.56 in 10.0 mi WNW 11.5 mph 19.6 mph N/A   Clear
2:53 AM 44.1 °F 40.8 °F 30.0 °F 58% 29.57 in 10.0 mi WNW 5.8 mph - N/A   Mostly Cloudy
3:53 AM 44.1 °F 38.1 °F 28.0 °F 53% 29.57 in 10.0 mi NW 11.5 mph 23.0 mph N/A   Clear
4:53 AM 42.1 °F 38.4 °F 28.9 °F 60% 29.59 in 10.0 mi West 5.8 mph - N/A   Clear
5:53 AM 41.0 °F 36.4 °F 28.9 °F 62% 29.90 in 10.0 mi WNW 6.9 mph - N/A   Clear
6:53 AM 39.9 °F 35.1 °F 28.0 °F 63% 29.92 in 10.0 mi WNW 6.9 mph - N/A   Clear
7:53 AM 41.0 °F 34.7 °F 26.1 °F 55% 29.96 in 10.0 mi WNW 10.4 mph 20.7 mph N/A   Clear
8:53 AM 42.1 °F 35.7 °F 24.1 °F 49% 29.99 in 10.0 mi WNW 11.5 mph 25.3 mph N/A   Clear
9:53 AM 45.0 °F 40.1 °F 25.0 °F 46% 30.00 in 10.0 mi WNW 9.2 mph 21.9 mph N/A   Clear
10:53 AM 48.0 °F - 26.1 °F 42% 30.00 in 10.0 mi West 11.5 mph 21.9 mph N/A   Clear
11:53 AM 52.0 °F - 25.0 °F 35% 29.99 in 10.0 mi WNW 11.5 mph 20.7 mph N/A   Clear
12:53 PM 54.0 °F - 23.0 °F 30% 29.97 in 10.0 mi WNW 12.7 mph 23.0 mph N/A   Clear
1:53 PM 57.0 °F - 21.0 °F 25% 29.96 in 10.0 mi WNW 10.4 mph 21.9 mph N/A   Clear
2:53 PM 57.9 °F - 19.0 °F 22% 29.94 in 10.0 mi NW 16.1 mph 26.5 mph N/A   Clear
3:53 PM 57.9 °F - 19.9 °F 23% 29.94 in 10.0 mi WNW 16.1 mph 38.0 mph N/A   Clear
4:53 PM 57.0 °F - 21.0 °F 25% 29.94 in 10.0 mi NW 15.0 mph 26.5 mph N/A   Clear
5:53 PM 55.9 °F - 19.0 °F 24% 29.96 in 10.0 mi WNW 6.9 mph 21.9 mph N/A   Clear
6:53 PM 53.1 °F - 21.0 °F 29% 30.00 in 10.0 mi NW 10.4 mph 18.4 mph N/A   Clear
7:53 PM 50.0 °F - 19.9 °F 31% 30.03 in 10.0 mi WNW 5.8 mph - N/A   Clear
8:53 PM 48.0 °F - 21.0 °F 34% 30.07 in 10.0 mi NW 8.1 mph - N/A   Clear
9:53 PM 46.9 °F - 21.9 °F 37% 30.11 in 10.0 mi NW 8.1 mph - N/A   Clear
10:53 PM 45.0 °F 40.6 °F 21.9 °F 40% 30.13 in 10.0 mi NW 8.1 mph - N/A   Clear
11:53 PM 43.0 °F 38.2 °F 23.0 °F 45% 30.15 in 10.0 mi NW 8.1 mph 17.3 mph N/A   Clear